Location: Eitze
(52.9840°N, 9.6894°E)
Time: 00:35:11
(UTC+00:00)

Cosmos 1758 - Pass Details

Date: 19 May 2025
Orbit: 490 x 512 km, 82.5° (Epoch: 22 June)

Event Time Altitude Azimuth Distance (km) Brightness Sun altitude
Rises 23:17:45 0° 354° (N) 2,646 8.6 -17.0°
Reaches altitude 10° 23:20:02 10° 4° (N) 1,753 7.2 -17.0°
Maximum altitude 23:23:35 35° 71° (ENE) 846 4.4 -17.0°
Enters shadow 23:25:36 21° 125° (SE) 1,211 4.7 -17.0°
